Погода в Крутом Майдане

Россия / Нижегородская область     55°35′16″N   44°04′21″E
темп.,
°C
ветер,
м/с
пор.,
м/с
влажн.,
%
обл.,
%
осадки,
мм/ч
давл.,
гПа
погр.,
м
24 июля, сб
сб2400:00+12зсз38935 0.1 1006154
03:00+11зсз34935 0.1 100757
06:00+12зсз379118 0.0 1009225
09:00+16сз5670100 0.2 1010763
12:00+18ссз5556100 0.8 10111448
15:00+19с345429 1.8 10121505
18:00+16сз257270 1.4 1014429
21:00+11сз23765 1.4 101625
25 июля, вс
вс2500:00+10сз22742 0.0 101815
03:00+9сз227728 0.0 101910
06:00+13з127125 0.0 102169
09:00+18ююз22473 0.0 1021822
12:00+22зюз233155 0.0 10212615
15:00+22с443183 0.0 10212265
18:00+21св333857 0.0 1021570
21:00+17ю3348100 0.0 102264
26 июля, пн
пн2600:00+13зюз336325 0.0 102335
03:00+15з235769 0.0 102464
06:00+15з24625 0.0 1024114
09:00+21зсз344068 0.0 1024801
12:00+24зсз453373 0.0 10242574
15:00+24зсз463421 0.0 10232278
18:00+23зсз35389 0.0 1023967
21:00+19з2250100 0.0 102322
27 июля, вт
вт2700:00+15зюз346285 0.0 102355
03:00+14з34707 0.0 102352
06:00+17з266210 0.0 1023183
09:00+23зсз34455 0.0 1022730
12:00+27зсз443222 0.0 10212553
15:00+26зсз3434100 0.0 10202169
18:00+25зсз46419 0.0 1019611
21:00+19зсз335647 0.0 102033
28 июля, ср
ср2800:00+16зсз227242 0.0 102019
03:00+15сз227817 0.1 102011
06:00+18зсз23705 0.0 1020100
09:00+24з34474 0.0 1018689
12:00+28з343337 0.0 10172744
15:00+28зсз243197 0.0 10152342
18:00+27зсз56385 0.0 1014896
21:00+20з33609 0.0 101432